Wetterdaten: Dienstag, 16.10.2018
Datum Zeit Temp. A. Temp. A. min Temp. A. max Feuchte A. Bod.Feucht 4 Luftdruck Regen Wind Richtung Richtung Sonnenschein ET Solar Taupunkt Windchill Windben Empfang
16.10.2018 00:00 14,6 C 14,5 C 14,6 C 71 % 0 cb 1015,7 hPa 0,0 l/m 3,2 km/h (1 Bft) N-NO 22 0 min 0,025 mm 0 W/m 9,4 C 14,6 C 8,0 km/h (2 Bft) 100,00 %
16.10.2018 00:10 14,6 C 14,6 C 14,6 C 71 % 0 cb 1015,8 hPa 0,0 l/m 4,8 km/h (1 Bft) N-NO 22 0 min 0,000 mm 0 W/m 9,4 C 14,6 C 8,0 km/h (2 Bft) 80,70 %
16.10.2018 00:20 14,6 C 14,6 C 14,6 C 71 % 0 cb 1015,7 hPa 0,0 l/m 4,8 km/h (1 Bft) N-NO 22 0 min 0,000 mm 0 W/m 9,4 C 14,6 C 9,7 km/h (2 Bft) 100,00 %
16.10.2018 00:30 14,3 C 14,3 C 14,6 C 71 % 0 cb 1015,8 hPa 0,0 l/m 3,2 km/h (1 Bft) N-NO 22 0 min 0,000 mm 0 W/m 9,1 C 14,3 C 4,8 km/h (1 Bft) 99,56 %
16.10.2018 00:40 13,9 C 13,9 C 14,3 C 73 % 0 cb 1015,9 hPa 0,0 l/m 3,2 km/h (1 Bft) N-NO 22 0 min 0,000 mm 0 W/m 9,1 C 13,9 C 6,4 km/h (2 Bft) 100,00 %
16.10.2018 00:50 13,9 C 13,8 C 13,9 C 73 % 0 cb 1016,0 hPa 0,0 l/m 4,8 km/h (1 Bft) N-NO 22 0 min 0,000 mm 0 W/m 9,1 C 13,9 C 8,0 km/h (2 Bft) 100,00 %
16.10.2018 01:00 14,3 C 13,9 C 14,3 C 72 % 0 cb 1015,8 hPa 0,0 l/m 4,8 km/h (1 Bft) N-NO 22 0 min 0,025 mm 0 W/m 9,3 C 14,3 C 9,7 km/h (2 Bft) 100,00 %
16.10.2018 01:10 14,6 C 14,3 C 14,6 C 71 % 0 cb 1015,8 hPa 0,0 l/m 6,4 km/h (2 Bft) N-NO 22 0 min 0,000 mm 0 W/m 9,4 C 14,6 C 9,7 km/h (2 Bft) 100,00 %
16.10.2018 01:20 14,7 C 14,6 C 14,7 C 71 % 0 cb 1015,9 hPa 0,0 l/m 4,8 km/h (1 Bft) N-NO 22 0 min 0,000 mm 0 W/m 9,5 C 14,7 C 11,3 km/h (2 Bft) 100,00 %
16.10.2018 01:30 14,7 C 14,7 C 14,7 C 71 % 0 cb 1015,9 hPa 0,0 l/m 6,4 km/h (2 Bft) N-NO 22 0 min 0,000 mm 0 W/m 9,5 C 14,7 C 9,7 km/h (2 Bft) 100,00 %
16.10.2018 01:40 14,7 C 14,7 C 14,7 C 71 % 0 cb 1015,9 hPa 0,0 l/m 4,8 km/h (1 Bft) N-NO 22 0 min 0,000 mm 0 W/m 9,5 C 14,7 C 11,3 km/h (2 Bft) 100,00 %
16.10.2018 01:50 14,8 C 14,7 C 14,8 C 70 % 0 cb 1016,0 hPa 0,0 l/m 6,4 km/h (2 Bft) N-NO 22 0 min 0,000 mm 0 W/m 9,4 C 14,8 C 11,3 km/h (2 Bft) 100,00 %
16.10.2018 02:00 14,8 C 14,7 C 14,8 C 70 % 0 cb 1016,1 hPa 0,0 l/m 6,4 km/h (2 Bft) N-NO 22 0 min 0,025 mm 0 W/m 9,4 C 14,8 C 11,3 km/h (2 Bft) 100,00 %
16.10.2018 02:10 14,7 C 14,7 C 14,8 C 70 % 0 cb 1016,1 hPa 0,0 l/m 4,8 km/h (1 Bft) N-NO 22 0 min 0,000 mm 0 W/m 9,3 C 14,7 C 9,7 km/h (2 Bft) 100,00 %
16.10.2018 02:20 14,6 C 14,6 C 14,8 C 70 % 0 cb 1016,2 hPa 0,0 l/m 4,8 km/h (1 Bft) N 360 0 min 0,000 mm 0 W/m 9,2 C 14,6 C 8,0 km/h (2 Bft) 100,00 %
16.10.2018 02:30 14,5 C 14,5 C 14,6 C 71 % 0 cb 1016,3 hPa 0,0 l/m 3,2 km/h (1 Bft) N-NO 22 0 min 0,000 mm 0 W/m 9,3 C 14,5 C 8,0 km/h (2 Bft) 100,00 %
16.10.2018 02:40 14,4 C 14,4 C 14,5 C 71 % 0 cb 1016,3 hPa 0,0 l/m 3,2 km/h (1 Bft) N-NO 22 0 min 0,000 mm 0 W/m 9,2 C 14,4 C 8,0 km/h (2 Bft) 100,00 %
16.10.2018 02:50 14,2 C 14,2 C 14,4 C 72 % 0 cb 1016,4 hPa 0,0 l/m 3,2 km/h (1 Bft) N-NO 22 0 min 0,000 mm 0 W/m 9,2 C 14,2 C 6,4 km/h (2 Bft) 100,00 %
16.10.2018 03:00 14,2 C 14,1 C 14,2 C 72 % 0 cb 1016,4 hPa 0,0 l/m 3,2 km/h (1 Bft) N-NO 22 0 min 0,025 mm 0 W/m 9,2 C 14,2 C 6,4 km/h (2 Bft) 100,00 %
16.10.2018 03:10 14,1 C 14,1 C 14,2 C 72 % 0 cb 1016,5 hPa 0,0 l/m 3,2 km/h (1 Bft) N-NO 22 0 min 0,000 mm 0 W/m 9,1 C 14,1 C 4,8 km/h (1 Bft) 100,00 %
16.10.2018 03:20 13,9 C 13,9 C 14,1 C 72 % 0 cb 1016,5 hPa 0,0 l/m 3,2 km/h (1 Bft) N-NO 22 0 min 0,000 mm 0 W/m 8,9 C 13,9 C 4,8 km/h (1 Bft) 100,00 %
16.10.2018 03:30 13,8 C 13,8 C 13,9 C 73 % 0 cb 1016,5 hPa 0,0 l/m 3,2 km/h (1 Bft) N-NO 22 0 min 0,000 mm 0 W/m 9,0 C 13,8 C 6,4 km/h (2 Bft) 100,00 %
16.10.2018 03:40 13,8 C 13,8 C 13,8 C 73 % 0 cb 1016,5 hPa 0,0 l/m 3,2 km/h (1 Bft) N-NO 22 0 min 0,000 mm 0 W/m 9,0 C 13,8 C 6,4 km/h (2 Bft) 100,00 %
16.10.2018 03:50 13,6 C 13,6 C 13,8 C 72 % 0 cb 1016,5 hPa 0,0 l/m 0,0 km/h (0 Bft) N 360 0 min 0,000 mm 0 W/m 8,6 C 13,6 C 6,4 km/h (2 Bft) 100,00 %
16.10.2018 04:00 12,7 C 12,7 C 13,6 C 75 % 0 cb 1016,5 hPa 0,0 l/m 0,0 km/h (0 Bft) N 360 0 min 0,025 mm 0 W/m 8,4 C 12,7 C 4,8 km/h (1 Bft) 100,00 %
16.10.2018 04:10 12,5 C 12,4 C 12,7 C 77 % 0 cb 1016,5 hPa 0,0 l/m 1,6 km/h (1 Bft) N-NO 22 0 min 0,000 mm 0 W/m 8,6 C 12,5 C 6,4 km/h (2 Bft) 100,00 %
16.10.2018 04:20 13,0 C 12,6 C 13,0 C 76 % 0 cb 1016,5 hPa 0,0 l/m 3,2 km/h (1 Bft) NO 45 0 min 0,000 mm 0 W/m 8,9 C 13,0 C 8,0 km/h (2 Bft) 100,00 %
16.10.2018 04:30 13,4 C 13,0 C 13,4 C 74 % 0 cb 1016,6 hPa 0,0 l/m 4,8 km/h (1 Bft) N-NO 22 0 min 0,000 mm 0 W/m 8,9 C 13,4 C 9,7 km/h (2 Bft) 100,00 %
16.10.2018 04:40 13,7 C 13,4 C 13,7 C 74 % 0 cb 1016,6 hPa 0,0 l/m 3,2 km/h (1 Bft) N-NO 22 0 min 0,000 mm 0 W/m 9,2 C 13,7 C 9,7 km/h (2 Bft) 100,00 %
16.10.2018 04:50 13,8 C 13,7 C 13,8 C 73 % 0 cb 1016,7 hPa 0,0 l/m 4,8 km/h (1 Bft) N-NO 22 0 min 0,000 mm 0 W/m 9,0 C 13,8 C 11,3 km/h (2 Bft) 100,00 %
16.10.2018 05:00 13,9 C 13,8 C 13,9 C 73 % 0 cb 1016,7 hPa 0,0 l/m 4,8 km/h (1 Bft) N-NO 22 0 min 0,025 mm 0 W/m 9,1 C 13,9 C 11,3 km/h (2 Bft) 100,00 %
16.10.2018 05:10 13,8 C 13,8 C 13,9 C 72 % 0 cb 1016,9 hPa 0,0 l/m 3,2 km/h (1 Bft) N-NO 22 0 min 0,000 mm 0 W/m 8,8 C 13,8 C 8,0 km/h (2 Bft) 100,00 %
16.10.2018 05:20 13,6 C 13,6 C 13,8 C 73 % 0 cb 1016,8 hPa 0,0 l/m 3,2 km/h (1 Bft) N-NO 22 0 min 0,000 mm 0 W/m 8,9 C 13,6 C 6,4 km/h (2 Bft) 100,00 %
16.10.2018 05:30 12,9 C 12,9 C 13,6 C 72 % 0 cb 1016,9 hPa 0,0 l/m 0,0 km/h (0 Bft) N-NO 22 0 min 0,000 mm 0 W/m 8,0 C 12,9 C 4,8 km/h (1 Bft) 99,12 %
16.10.2018 05:40 11,9 C 11,9 C 12,9 C 75 % 0 cb 1016,9 hPa 0,0 l/m 0,0 km/h (0 Bft) N 0 0 min 0,000 mm 0 W/m 7,6 C 11,9 C 0,0 km/h (0 Bft) 100,00 %
16.10.2018 05:50 11,3 C 11,3 C 11,9 C 79 % 0 cb 1016,9 hPa 0,0 l/m 0,0 km/h (0 Bft) N-NO 22 0 min 0,000 mm 0 W/m 7,8 C 11,3 C 4,8 km/h (1 Bft) 100,00 %
16.10.2018 06:00 11,3 C 11,1 C 11,3 C 82 % 0 cb 1016,9 hPa 0,0 l/m 3,2 km/h (1 Bft) N 360 0 min 0,025 mm 0 W/m 8,3 C 11,3 C 6,4 km/h (2 Bft) 99,12 %
16.10.2018 06:10 11,8 C 11,3 C 11,8 C 80 % 0 cb 1017,0 hPa 0,0 l/m 1,6 km/h (1 Bft) N-NO 22 0 min 0,000 mm 0 W/m 8,5 C 11,8 C 6,4 km/h (2 Bft) 100,00 %
16.10.2018 06:20 12,5 C 11,8 C 12,5 C 78 % 0 cb 1017,1 hPa 0,0 l/m 3,2 km/h (1 Bft) N-NO 22 0 min 0,000 mm 0 W/m 8,8 C 12,5 C 9,7 km/h (2 Bft) 99,56 %
16.10.2018 06:30 12,9 C 12,5 C 12,9 C 77 % 0 cb 1017,1 hPa 0,0 l/m 3,2 km/h (1 Bft) N 360 0 min 0,000 mm 0 W/m 9,0 C 12,9 C 9,7 km/h (2 Bft) 100,00 %
16.10.2018 06:40 13,6 C 12,9 C 13,6 C 74 % 0 cb 1017,2 hPa 0,0 l/m 6,4 km/h (2 Bft) N-NO 22 0 min 0,000 mm 0 W/m 9,1 C 13,6 C 12,9 km/h (3 Bft) 100,00 %
16.10.2018 06:50 13,8 C 13,6 C 13,8 C 73 % 0 cb 1017,2 hPa 0,0 l/m 6,4 km/h (2 Bft) N-NO 22 0 min 0,000 mm 0 W/m 9,0 C 13,8 C 17,7 km/h (3 Bft) 100,00 %
16.10.2018 07:00 13,8 C 13,8 C 13,8 C 73 % 0 cb 1017,2 hPa 0,0 l/m 6,4 km/h (2 Bft) N-NO 22 0 min 0,025 mm 0 W/m 9,0 C 13,8 C 14,5 km/h (3 Bft) 100,00 %
16.10.2018 07:10 13,7 C 13,7 C 13,8 C 73 % 0 cb 1017,3 hPa 0,0 l/m 6,4 km/h (2 Bft) N 360 0 min 0,000 mm 0 W/m 8,9 C 13,7 C 12,9 km/h (3 Bft) 100,00 %
16.10.2018 07:20 13,6 C 13,6 C 13,7 C 73 % 0 cb 1017,3 hPa 0,0 l/m 4,8 km/h (1 Bft) N 360 0 min 0,000 mm 0 W/m 8,9 C 13,6 C 12,9 km/h (3 Bft) 100,00 %
16.10.2018 07:30 13,6 C 13,6 C 13,6 C 73 % 0 cb 1017,4 hPa 0,0 l/m 6,4 km/h (2 Bft) N-NO 22 0 min 0,000 mm 0 W/m 8,9 C 13,6 C 12,9 km/h (3 Bft) 100,00 %
16.10.2018 07:40 13,5 C 13,4 C 13,6 C 73 % 0 cb 1017,4 hPa 0,0 l/m 4,8 km/h (1 Bft) N-NO 22 0 min 0,000 mm 0 W/m 8,8 C 13,5 C 9,7 km/h (2 Bft) 100,00 %
16.10.2018 07:50 13,3 C 13,3 C 13,4 C 74 % 0 cb 1017,5 hPa 0,0 l/m 3,2 km/h (1 Bft) N-NO 22 0 min 0,000 mm 0 W/m 8,8 C 13,3 C 8,0 km/h (2 Bft) 100,00 %
16.10.2018 08:00 13,2 C 13,2 C 13,3 C 74 % 0 cb 1017,6 hPa 0,0 l/m 3,2 km/h (1 Bft) N-NO 22 0 min 0,025 mm 7 W/m 8,7 C 13,2 C 8,0 km/h (2 Bft) 100,00 %
16.10.2018 08:10 13,2 C 13,2 C 13,2 C 75 % 0 cb 1017,6 hPa 0,0 l/m 4,8 km/h (1 Bft) NO 45 0 min 0,000 mm 11 W/m 8,9 C 13,2 C 8,0 km/h (2 Bft) 100,00 %
16.10.2018 08:20 13,4 C 13,2 C 13,4 C 74 % 0 cb 1017,6 hPa 0,0 l/m 4,8 km/h (1 Bft) N-NO 22 0 min 0,000 mm 14 W/m 8,9 C 13,4 C 11,3 km/h (2 Bft) 100,00 %
16.10.2018 08:30 13,7 C 13,4 C 13,7 C 73 % 0 cb 1017,8 hPa 0,0 l/m 4,8 km/h (1 Bft) N-NO 22 0 min 0,000 mm 19 W/m 8,9 C 13,7 C 11,3 km/h (2 Bft) 100,00 %
16.10.2018 08:40 13,7 C 13,7 C 13,7 C 73 % 0 cb 1017,8 hPa 0,0 l/m 4,8 km/h (1 Bft) N-NO 22 0 min 0,000 mm 23 W/m 8,9 C 13,7 C 9,7 km/h (2 Bft) 100,00 %
16.10.2018 08:50 13,7 C 13,7 C 13,7 C 73 % 0 cb 1017,8 hPa 0,0 l/m 3,2 km/h (1 Bft) NO 45 0 min 0,000 mm 25 W/m 8,9 C 13,7 C 8,0 km/h (2 Bft) 100,00 %
16.10.2018 09:00 13,8 C 13,7 C 13,8 C 74 % 0 cb 1017,9 hPa 0,0 l/m 3,2 km/h (1 Bft) NO 45 0 min 0,025 mm 28 W/m 9,2 C 13,8 C 8,0 km/h (2 Bft) 100,00 %
16.10.2018 09:10 13,9 C 13,7 C 13,9 C 74 % 0 cb 1017,9 hPa 0,0 l/m 3,2 km/h (1 Bft) N-NO 22 0 min 0,000 mm 121 W/m 9,3 C 13,9 C 6,4 km/h (2 Bft) 100,00 %
16.10.2018 09:20 14,5 C 13,9 C 14,5 C 72 % 0 cb 1018,0 hPa 0,0 l/m 3,2 km/h (1 Bft) NO 45 0 min 0,000 mm 148 W/m 9,5 C 14,5 C 6,4 km/h (2 Bft) 100,00 %
16.10.2018 09:30 15,0 C 14,5 C 15,0 C 70 % 0 cb 1018,0 hPa 0,0 l/m 3,2 km/h (1 Bft) N-NO 22 10 min 0,000 mm 172 W/m 9,6 C 15,0 C 8,0 km/h (2 Bft) 100,00 %
16.10.2018 09:40 15,4 C 15,0 C 15,4 C 69 % 0 cb 1018,2 hPa 0,0 l/m 4,8 km/h (1 Bft) NO 45 10 min 0,000 mm 202 W/m 9,7 C 15,4 C 9,7 km/h (2 Bft) 100,00 %
16.10.2018 09:50 15,8 C 15,4 C 15,8 C 68 % 0 cb 1018,3 hPa 0,0 l/m 3,2 km/h (1 Bft) N-NO 22 10 min 0,000 mm 214 W/m 9,9 C 15,8 C 8,0 km/h (2 Bft) 100,00 %
16.10.2018 10:00 15,9 C 15,8 C 15,9 C 67 % 0 cb 1018,4 hPa 0,0 l/m 3,2 km/h (1 Bft) NO 45 10 min 0,102 mm 274 W/m 9,8 C 15,9 C 8,0 km/h (2 Bft) 100,00 %
16.10.2018 10:10 16,4 C 15,9 C 16,4 C 66 % 0 cb 1018,4 hPa 0,0 l/m 4,8 km/h (1 Bft) NO 45 10 min 0,000 mm 302 W/m 10,0 C 16,4 C 9,7 km/h (2 Bft) 100,00 %
16.10.2018 10:20 16,9 C 16,4 C 16,9 C 65 % 0 cb 1018,4 hPa 0,0 l/m 4,8 km/h (1 Bft) N-NO 22 10 min 0,000 mm 320 W/m 10,3 C 16,9 C 9,7 km/h (2 Bft) 100,00 %
16.10.2018 10:30 17,2 C 16,9 C 17,2 C 65 % 0 cb 1018,3 hPa 0,0 l/m 3,2 km/h (1 Bft) N-NO 22 10 min 0,000 mm 299 W/m 10,6 C 17,2 C 9,7 km/h (2 Bft) 100,00 %
16.10.2018 10:40 17,4 C 17,2 C 17,4 C 65 % 0 cb 1018,4 hPa 0,0 l/m 1,6 km/h (1 Bft) N 360 10 min 0,000 mm 367 W/m 10,8 C 17,4 C 6,4 km/h (2 Bft) 100,00 %
16.10.2018 10:50 18,1 C 17,4 C 18,1 C 63 % 0 cb 1018,4 hPa 0,0 l/m 1,6 km/h (1 Bft) NO 45 10 min 0,000 mm 387 W/m 10,9 C 18,1 C 6,4 km/h (2 Bft) 100,00 %
16.10.2018 11:00 18,6 C 18,1 C 18,6 C 62 % 0 cb 1018,5 hPa 0,0 l/m 1,6 km/h (1 Bft) NO 45 10 min 0,178 mm 373 W/m 11,2 C 18,6 C 6,4 km/h (2 Bft) 100,00 %
16.10.2018 11:10 19,3 C 18,6 C 19,3 C 62 % 0 cb 1018,4 hPa 0,0 l/m 1,6 km/h (1 Bft) N-NW 337 10 min 0,000 mm 445 W/m 11,8 C 19,3 C 6,4 km/h (2 Bft) 100,00 %
16.10.2018 11:20 19,7 C 19,3 C 19,7 C 60 % 0 cb 1018,5 hPa 0,0 l/m 1,6 km/h (1 Bft) N-NO 22 10 min 0,000 mm 420 W/m 11,7 C 19,7 C 4,8 km/h (1 Bft) 100,00 %
16.10.2018 11:30 19,8 C 19,7 C 19,8 C 59 % 0 cb 1018,3 hPa 0,0 l/m 3,2 km/h (1 Bft) NO 45 10 min 0,000 mm 499 W/m 11,6 C 19,8 C 8,0 km/h (2 Bft) 100,00 %
16.10.2018 11:40 20,3 C 19,8 C 20,3 C 60 % 0 cb 1018,4 hPa 0,0 l/m 3,2 km/h (1 Bft) S-SO 157 10 min 0,000 mm 445 W/m 12,3 C 20,3 C 6,4 km/h (2 Bft) 100,00 %
16.10.2018 11:50 20,7 C 20,3 C 20,7 C 60 % 0 cb 1018,4 hPa 0,0 l/m 1,6 km/h (1 Bft) S-SO 157 10 min 0,000 mm 399 W/m 12,7 C 20,7 C 4,8 km/h (1 Bft) 100,00 %
16.10.2018 12:00 21,3 C 20,7 C 21,3 C 56 % 0 cb 1018,5 hPa 0,0 l/m 3,2 km/h (1 Bft) S-SO 157 10 min 0,203 mm 510 W/m 12,2 C 21,3 C 6,4 km/h (2 Bft) 100,00 %
16.10.2018 12:10 21,4 C 21,3 C 21,4 C 55 % 0 cb 1018,5 hPa 0,0 l/m 1,6 km/h (1 Bft) SO 135 10 min 0,000 mm 473 W/m 12,0 C 21,4 C 6,4 km/h (2 Bft) 99,56 %
16.10.2018 12:20 21,6 C 21,4 C 21,6 C 55 % 0 cb 1018,4 hPa 0,0 l/m 1,6 km/h (1 Bft) O-SO 112 10 min 0,000 mm 496 W/m 12,2 C 21,6 C 3,2 km/h (1 Bft) 100,00 %
16.10.2018 12:30 21,6 C 21,6 C 21,6 C 54 % 0 cb 1018,4 hPa 0,0 l/m 3,2 km/h (1 Bft) O 90 10 min 0,000 mm 536 W/m 11,9 C 21,6 C 8,0 km/h (2 Bft) 100,00 %
16.10.2018 12:40 22,2 C 21,6 C 22,2 C 51 % 0 cb 1018,2 hPa 0,0 l/m 3,2 km/h (1 Bft) O 90 10 min 0,000 mm 545 W/m 11,6 C 22,2 C 14,5 km/h (3 Bft) 100,00 %
16.10.2018 12:50 22,4 C 22,2 C 22,4 C 49 % 0 cb 1018,2 hPa 0,0 l/m 4,8 km/h (1 Bft) O 90 10 min 0,000 mm 522 W/m 11,2 C 22,4 C 12,9 km/h (3 Bft) 100,00 %
16.10.2018 13:00 22,5 C 22,4 C 22,5 C 49 % 0 cb 1018,3 hPa 0,0 l/m 4,8 km/h (1 Bft) O 90 10 min 0,254 mm 543 W/m 11,2 C 22,5 C 12,9 km/h (3 Bft) 100,00 %
16.10.2018 13:10 22,4 C 22,4 C 22,5 C 48 % 0 cb 1018,2 hPa 0,0 l/m 3,2 km/h (1 Bft) O 90 10 min 0,000 mm 390 W/m 10,8 C 22,4 C 11,3 km/h (2 Bft) 100,00 %
16.10.2018 13:20 22,5 C 22,4 C 22,5 C 47 % 0 cb 1018,2 hPa 0,0 l/m 4,8 km/h (1 Bft) O 90 10 min 0,000 mm 475 W/m 10,6 C 22,5 C 11,3 km/h (2 Bft) 100,00 %
16.10.2018 13:30 22,8 C 22,5 C 22,8 C 46 % 0 cb 1018,1 hPa 0,0 l/m 4,8 km/h (1 Bft) O 90 10 min 0,000 mm 603 W/m 10,6 C 22,8 C 19,3 km/h (3 Bft) 100,00 %
16.10.2018 13:40 23,3 C 22,9 C 23,3 C 43 % 0 cb 1018,0 hPa 0,0 l/m 4,8 km/h (1 Bft) O-NO 67 10 min 0,000 mm 606 W/m 10,0 C 23,3 C 14,5 km/h (3 Bft) 100,00 %
16.10.2018 13:50 23,2 C 23,2 C 23,3 C 43 % 0 cb 1018,0 hPa 0,0 l/m 4,8 km/h (1 Bft) O-NO 67 10 min 0,000 mm 359 W/m 9,9 C 23,2 C 12,9 km/h (3 Bft) 100,00 %
16.10.2018 14:00 22,9 C 22,9 C 23,2 C 43 % 0 cb 1018,1 hPa 0,0 l/m 4,8 km/h (1 Bft) O-NO 67 10 min 0,254 mm 369 W/m 9,6 C 22,9 C 12,9 km/h (3 Bft) 100,00 %
16.10.2018 14:10 22,7 C 22,6 C 22,9 C 43 % 0 cb 1018,1 hPa 0,0 l/m 4,8 km/h (1 Bft) O-NO 67 10 min 0,000 mm 413 W/m 9,5 C 22,7 C 11,3 km/h (2 Bft) 100,00 %
16.10.2018 14:20 22,4 C 22,4 C 22,6 C 46 % 0 cb 1018,1 hPa 0,0 l/m 1,6 km/h (1 Bft) NO 45 10 min 0,000 mm 214 W/m 10,2 C 22,4 C 6,4 km/h (2 Bft) 100,00 %
16.10.2018 14:30 22,4 C 22,4 C 22,4 C 45 % 0 cb 1018,0 hPa 0,0 l/m 3,2 km/h (1 Bft) O 90 10 min 0,000 mm 374 W/m 9,9 C 22,4 C 12,9 km/h (3 Bft) 100,00 %
16.10.2018 14:40 22,9 C 22,4 C 22,9 C 45 % 0 cb 1018,0 hPa 0,0 l/m 3,2 km/h (1 Bft) O 90 10 min 0,000 mm 555 W/m 10,3 C 22,9 C 11,3 km/h (2 Bft) 100,00 %
16.10.2018 14:50 23,3 C 22,9 C 23,3 C 45 % 0 cb 1018,0 hPa 0,0 l/m 3,2 km/h (1 Bft) O 90 10 min 0,000 mm 557 W/m 10,7 C 23,3 C 14,5 km/h (3 Bft) 100,00 %
16.10.2018 15:00 23,3 C 23,3 C 23,4 C 44 % 0 cb 1018,1 hPa 0,0 l/m 3,2 km/h (1 Bft) O 90 10 min 0,203 mm 278 W/m 10,4 C 23,3 C 14,5 km/h (3 Bft) 100,00 %
16.10.2018 15:10 22,7 C 22,7 C 23,3 C 46 % 0 cb 1018,2 hPa 0,0 l/m 4,8 km/h (1 Bft) SO 135 0 min 0,000 mm 107 W/m 10,5 C 22,7 C 12,9 km/h (3 Bft) 100,00 %
16.10.2018 15:20 22,4 C 22,4 C 22,7 C 47 % 0 cb 1018,2 hPa 0,0 l/m 1,6 km/h (1 Bft) O 90 10 min 0,000 mm 237 W/m 10,5 C 22,4 C 6,4 km/h (2 Bft) 100,00 %
16.10.2018 15:30 22,2 C 22,2 C 22,4 C 48 % 0 cb 1018,2 hPa 0,0 l/m 1,6 km/h (1 Bft) O 90 0 min 0,000 mm 139 W/m 10,7 C 22,2 C 6,4 km/h (2 Bft) 100,00 %
16.10.2018 15:40 22,2 C 22,2 C 22,2 C 49 % 0 cb 1018,1 hPa 0,0 l/m 1,6 km/h (1 Bft) O 90 10 min 0,000 mm 186 W/m 11,0 C 22,2 C 4,8 km/h (1 Bft) 100,00 %
16.10.2018 15:50 22,2 C 22,2 C 22,2 C 49 % 0 cb 1018,2 hPa 0,0 l/m 1,6 km/h (1 Bft) O 90 10 min 0,000 mm 158 W/m 11,0 C 22,2 C 6,4 km/h (2 Bft) 100,00 %
16.10.2018 16:00 22,2 C 22,2 C 22,2 C 49 % 0 cb 1018,2 hPa 0,0 l/m 0,0 km/h (0 Bft) O 90 0 min 0,102 mm 149 W/m 11,0 C 22,2 C 4,8 km/h (1 Bft) 100,00 %
16.10.2018 16:10 22,2 C 22,2 C 22,2 C 50 % 0 cb 1018,2 hPa 0,0 l/m 1,6 km/h (1 Bft) O-NO 67 10 min 0,000 mm 244 W/m 11,3 C 22,2 C 9,7 km/h (2 Bft) 100,00 %
16.10.2018 16:20 22,7 C 22,2 C 22,7 C 47 % 0 cb 1018,2 hPa 0,0 l/m 1,6 km/h (1 Bft) O-NO 67 10 min 0,000 mm 299 W/m 10,8 C 22,7 C 6,4 km/h (2 Bft) 100,00 %
16.10.2018 16:30 22,9 C 22,7 C 22,9 C 46 % 0 cb 1018,2 hPa 0,0 l/m 3,2 km/h (1 Bft) NO 45 10 min 0,000 mm 301 W/m 10,7 C 22,9 C 11,3 km/h (2 Bft) 100,00 %
16.10.2018 16:40 23,1 C 22,9 C 23,1 C 45 % 0 cb 1018,2 hPa 0,0 l/m 4,8 km/h (1 Bft) O-NO 67 10 min 0,000 mm 287 W/m 10,5 C 23,1 C 14,5 km/h (3 Bft) 100,00 %
16.10.2018 16:50 23,3 C 23,1 C 23,3 C 44 % 0 cb 1018,2 hPa 0,0 l/m 1,6 km/h (1 Bft) O 90 10 min 0,000 mm 221 W/m 10,4 C 23,3 C 6,4 km/h (2 Bft) 100,00 %
16.10.2018 17:00 23,0 C 23,0 C 23,3 C 44 % 0 cb 1018,3 hPa 0,0 l/m 1,6 km/h (1 Bft) O 90 0 min 0,152 mm 135 W/m 10,1 C 23,0 C 6,4 km/h (2 Bft) 100,00 %
16.10.2018 17:10 22,8 C 22,8 C 23,0 C 45 % 0 cb 1018,2 hPa 0,0 l/m 1,6 km/h (1 Bft) O 90 10 min 0,000 mm 172 W/m 10,2 C 22,8 C 9,7 km/h (2 Bft) 100,00 %
16.10.2018 17:20 22,4 C 22,4 C 22,8 C 44 % 0 cb 1018,1 hPa 0,0 l/m 1,6 km/h (1 Bft) O 90 0 min 0,000 mm 69 W/m 9,5 C 22,4 C 6,4 km/h (2 Bft) 100,00 %
16.10.2018 17:30 22,1 C 22,1 C 22,5 C 45 % 0 cb 1018,1 hPa 0,0 l/m 0,0 km/h (0 Bft) NO 45 0 min 0,000 mm 53 W/m 9,6 C 22,1 C 6,4 km/h (2 Bft) 100,00 %
16.10.2018 17:40 21,4 C 21,4 C 22,0 C 47 % 0 cb 1018,2 hPa 0,0 l/m 0,0 km/h (0 Bft) NO 45 0 min 0,000 mm 42 W/m 9,6 C 21,4 C 1,6 km/h (1 Bft) 100,00 %
16.10.2018 17:50 20,9 C 20,9 C 21,4 C 49 % 0 cb 1018,2 hPa 0,0 l/m 0,0 km/h (0 Bft) NO 45 0 min 0,000 mm 33 W/m 9,8 C 20,9 C 3,2 km/h (1 Bft) 100,00 %
16.10.2018 18:00 20,2 C 20,2 C 20,8 C 52 % 0 cb 1018,2 hPa 0,0 l/m 0,0 km/h (0 Bft) NO 45 0 min 0,051 mm 35 W/m 10,0 C 20,2 C 3,2 km/h (1 Bft) 100,00 %
16.10.2018 18:10 19,7 C 19,7 C 20,2 C 52 % 0 cb 1018,2 hPa 0,0 l/m 0,0 km/h (0 Bft) NO 45 0 min 0,000 mm 35 W/m 9,6 C 19,7 C 3,2 km/h (1 Bft) 100,00 %
16.10.2018 18:20 19,4 C 19,4 C 19,7 C 53 % 0 cb 1018,2 hPa 0,0 l/m 0,0 km/h (0 Bft) NO 45 0 min 0,000 mm 18 W/m 9,6 C 19,4 C 3,2 km/h (1 Bft) 100,00 %
16.10.2018 18:30 18,9 C 18,9 C 19,4 C 54 % 0 cb 1018,3 hPa 0,0 l/m 0,0 km/h (0 Bft) NO 45 0 min 0,000 mm 11 W/m 9,4 C 18,9 C 3,2 km/h (1 Bft) 100,00 %
16.10.2018 18:40 18,5 C 18,5 C 18,9 C 55 % 0 cb 1018,4 hPa 0,0 l/m 0,0 km/h (0 Bft) N 0 0 min 0,000 mm 5 W/m 9,3 C 18,5 C 0,0 km/h (0 Bft) 100,00 %
16.10.2018 18:50 18,0 C 18,0 C 18,5 C 56 % 0 cb 1018,6 hPa 0,0 l/m 0,0 km/h (0 Bft) N 0 0 min 0,000 mm 0 W/m 9,1 C 18,0 C 0,0 km/h (0 Bft) 99,56 %
16.10.2018 19:00 17,6 C 17,6 C 18,0 C 57 % 0 cb 1018,6 hPa 0,0 l/m 0,0 km/h (0 Bft) N 0 0 min 0,025 mm 0 W/m 9,0 C 17,6 C 0,0 km/h (0 Bft) 100,00 %
16.10.2018 19:10 17,4 C 17,4 C 17,6 C 56 % 0 cb 1018,8 hPa 0,0 l/m 1,6 km/h (1 Bft) NO 45 0 min 0,000 mm 0 W/m 8,5 C 17,4 C 4,8 km/h (1 Bft) 100,00 %
16.10.2018 19:20 17,3 C 17,2 C 17,4 C 57 % 0 cb 1018,9 hPa 0,0 l/m 1,6 km/h (1 Bft) N-NO 22 0 min 0,000 mm 0 W/m 8,7 C 17,3 C 4,8 km/h (1 Bft) 100,00 %
16.10.2018 19:30 17,3 C 17,2 C 17,3 C 56 % 0 cb 1018,9 hPa 0,0 l/m 3,2 km/h (1 Bft) N-NO 22 0 min 0,000 mm 0 W/m 8,4 C 17,3 C 8,0 km/h (2 Bft) 100,00 %
16.10.2018 19:40 17,3 C 17,3 C 17,4 C 57 % 0 cb 1019,0 hPa 0,0 l/m 3,2 km/h (1 Bft) N-NO 22 0 min 0,000 mm 0 W/m 8,7 C 17,3 C 8,0 km/h (2 Bft) 100,00 %
16.10.2018 19:50 17,3 C 17,3 C 17,3 C 57 % 0 cb 1019,0 hPa 0,0 l/m 4,8 km/h (1 Bft) N-NO 22 0 min 0,000 mm 0 W/m 8,7 C 17,3 C 8,0 km/h (2 Bft) 100,00 %
16.10.2018 20:00 17,2 C 17,2 C 17,3 C 57 % 0 cb 1019,0 hPa 0,0 l/m 3,2 km/h (1 Bft) N-NO 22 0 min 0,051 mm 0 W/m 8,6 C 17,2 C 6,4 km/h (2 Bft) 100,00 %
16.10.2018 20:10 17,1 C 17,1 C 17,2 C 57 % 0 cb 1019,0 hPa 0,0 l/m 3,2 km/h (1 Bft) N-NO 22 0 min 0,000 mm 0 W/m 8,5 C 17,1 C 8,0 km/h (2 Bft) 100,00 %
16.10.2018 20:20 16,9 C 16,9 C 17,1 C 58 % 0 cb 1019,1 hPa 0,0 l/m 1,6 km/h (1 Bft) N 360 0 min 0,000 mm 0 W/m 8,6 C 16,9 C 6,4 km/h (2 Bft) 100,00 %
16.10.2018 20:30 16,9 C 16,8 C 16,9 C 58 % 0 cb 1019,1 hPa 0,0 l/m 3,2 km/h (1 Bft) N 360 0 min 0,000 mm 0 W/m 8,6 C 16,9 C 8,0 km/h (2 Bft) 100,00 %
16.10.2018 20:40 16,8 C 16,8 C 16,9 C 59 % 0 cb 1019,2 hPa 0,0 l/m 1,6 km/h (1 Bft) N 360 0 min 0,000 mm 0 W/m 8,7 C 16,8 C 6,4 km/h (2 Bft) 100,00 %
16.10.2018 20:50 16,4 C 16,4 C 16,8 C 60 % 0 cb 1019,2 hPa 0,0 l/m 0,0 km/h (0 Bft) N 360 0 min 0,000 mm 0 W/m 8,6 C 16,4 C 3,2 km/h (1 Bft) 100,00 %
16.10.2018 21:00 15,9 C 15,9 C 16,4 C 63 % 0 cb 1019,2 hPa 0,0 l/m 0,0 km/h (0 Bft) N 0 0 min 0,051 mm 0 W/m 8,9 C 15,9 C 0,0 km/h (0 Bft) 100,00 %
16.10.2018 21:10 15,3 C 15,3 C 15,9 C 65 % 0 cb 1019,2 hPa 0,0 l/m 0,0 km/h (0 Bft) N 0 0 min 0,000 mm 0 W/m 8,8 C 15,3 C 0,0 km/h (0 Bft) 100,00 %
16.10.2018 21:20 14,9 C 14,9 C 15,3 C 66 % 0 cb 1019,3 hPa 0,0 l/m 1,6 km/h (1 Bft) N 360 0 min 0,000 mm 0 W/m 8,6 C 14,9 C 4,8 km/h (1 Bft) 100,00 %
16.10.2018 21:30 15,2 C 14,9 C 15,2 C 65 % 0 cb 1019,4 hPa 0,0 l/m 1,6 km/h (1 Bft) N 360 0 min 0,000 mm 0 W/m 8,7 C 15,2 C 4,8 km/h (1 Bft) 99,12 %
16.10.2018 21:40 15,2 C 15,2 C 15,2 C 65 % 0 cb 1019,5 hPa 0,0 l/m 1,6 km/h (1 Bft) N 360 0 min 0,000 mm 0 W/m 8,7 C 15,2 C 4,8 km/h (1 Bft) 100,00 %
16.10.2018 21:50 15,2 C 15,2 C 15,2 C 65 % 0 cb 1019,4 hPa 0,0 l/m 3,2 km/h (1 Bft) N 360 0 min 0,000 mm 0 W/m 8,7 C 15,2 C 6,4 km/h (2 Bft) 100,00 %
16.10.2018 22:00 15,2 C 15,2 C 15,2 C 65 % 0 cb 1019,4 hPa 0,0 l/m 3,2 km/h (1 Bft) N 360 0 min 0,025 mm 0 W/m 8,7 C 15,2 C 6,4 km/h (2 Bft) 100,00 %
16.10.2018 22:10 15,2 C 15,1 C 15,2 C 65 % 0 cb 1019,4 hPa 0,0 l/m 3,2 km/h (1 Bft) N-NO 22 0 min 0,000 mm 0 W/m 8,7 C 15,2 C 8,0 km/h (2 Bft) 100,00 %
16.10.2018 22:20 15,3 C 15,2 C 15,3 C 65 % 0 cb 1019,4 hPa 0,0 l/m 4,8 km/h (1 Bft) N-NO 22 0 min 0,000 mm 0 W/m 8,8 C 15,3 C 6,4 km/h (2 Bft) 100,00 %
16.10.2018 22:30 15,2 C 15,2 C 15,3 C 65 % 0 cb 1019,5 hPa 0,0 l/m 3,2 km/h (1 Bft) N 360 0 min 0,000 mm 0 W/m 8,7 C 15,2 C 6,4 km/h (2 Bft) 100,00 %
16.10.2018 22:40 15,2 C 15,2 C 15,3 C 65 % 0 cb 1019,4 hPa 0,0 l/m 4,8 km/h (1 Bft) N 360 0 min 0,000 mm 0 W/m 8,7 C 15,2 C 6,4 km/h (2 Bft) 100,00 %
16.10.2018 22:50 15,3 C 15,2 C 15,3 C 65 % 0 cb 1019,4 hPa 0,0 l/m 4,8 km/h (1 Bft) N 360 0 min 0,000 mm 0 W/m 8,8 C 15,3 C 8,0 km/h (2 Bft) 100,00 %
16.10.2018 23:00 15,2 C 15,2 C 15,3 C 65 % 0 cb 1019,5 hPa 0,0 l/m 6,4 km/h (2 Bft) N-NO 22 0 min 0,051 mm 0 W/m 8,7 C 15,2 C 8,0 km/h (2 Bft) 100,00 %
16.10.2018 23:10 15,2 C 15,1 C 15,2 C 65 % 0 cb 1019,4 hPa 0,0 l/m 6,4 km/h (2 Bft) N-NO 22 0 min 0,000 mm 0 W/m 8,7 C 15,2 C 11,3 km/h (2 Bft) 100,00 %
16.10.2018 23:20 15,1 C 15,1 C 15,2 C 65 % 0 cb 1019,4 hPa 0,0 l/m 4,8 km/h (1 Bft) N 360 0 min 0,000 mm 0 W/m 8,6 C 15,1 C 12,9 km/h (3 Bft) 100,00 %
16.10.2018 23:30 14,9 C 14,9 C 15,1 C 65 % 0 cb 1019,5 hPa 0,0 l/m 4,8 km/h (1 Bft) N 360 0 min 0,000 mm 0 W/m 8,4 C 14,9 C 11,3 km/h (2 Bft) 100,00 %
16.10.2018 23:40 14,9 C 14,9 C 14,9 C 65 % 0 cb 1019,4 hPa 0,0 l/m 4,8 km/h (1 Bft) N-NO 22 0 min 0,000 mm 0 W/m 8,4 C 14,9 C 9,7 km/h (2 Bft) 100,00 %
16.10.2018 23:50 14,8 C 14,8 C 14,9 C 66 % 0 cb 1019,4 hPa 0,0 l/m 6,4 km/h (2 Bft) N-NO 22 0 min 0,000 mm 0 W/m 8,5 C 14,8 C 11,3 km/h (2 Bft) 100,00 %
_ Min-Zeit 06:00 06:00 06:00 13:40 00:00 00:00 - 03:50 - - - - - 05:40 05:50 05:40 00:10
Minimum _ 11,1 C 11,1 C 11,3 C 43 % 0 cb 1015,7 hPa - 0,0 km/h (0 Bft) - - - - - 7,6 C 11,3 C 0,0 km/h (0 Bft) 80,70 %
_ Max-Zeit 15:00 15:00 15:00 06:00 00:00 21:40 00:00 01:10 - - 09:30 13:00 13:40 11:50 13:40 13:30 00:00
Maximum _ 23,4 C 23,3 C 23,4 C 82 % 0 cb 1019,5 hPa 0,0 l/m 6,4 km/h
N-NO (2 Bft)
- - 10 min 0,254 mm 606 W/m 12,7 C 23,3 C 19,3 km/h
O (3 Bft)
100,00 %
Durchschnitt _ 17,0 C 16,9 C 17,1 C 63 % 0 cb 1017,9 hPa #0,0 l/m 3,1 km/h (1 Bft) N-NO - #7:10 h #1,952 mm 266 W/m 9,5 C 17,0 C 8,0 km/h (2 Bft) 99,83 %
Wetterstation Gdesweiler